Regional Weather Roundup
Issued by NWS

Home | Current Version | Previous Version | Graphics & Text | Print | Product List | Glossary On
Versions: 1 2 3 4 5 6 7 8 9 10 11 12 13 14 15 16 17 18 19 20 21 22 23 24 25 26 27 28 29 30 31 32 33 34 35 36 37 38 39 40 41 42 43 44 45 46 47 48 49 50
000
ASUS45 KTFX 132004
RWRMT
MONTANA HOURLY WEATHER ROUNDUP
NATIONAL WEATHER SERVICE GREAT FALLS MT
204 PM MDT SUN JUL 13 2014

NOTE: "FAIR" INDICATES FEW OR NO CLOUDS BELOW 12000 FEET WITH NO
SIGNIFICANT WEATHER AND/OR OBSTRUCTIONS TO VISIBILITY.

* THESE STATIONS ARE NOT UNDER NWS QUALITY CONTROL. THEY DO NOT
   REPORT WEATHER SUCH AS PRECIPITATION OR FOG.

MTZ001>007-043-132100-
WEST OF THE DIVIDE
CITY           SKY/WX    TMP DP  RH WIND       PRES   REMARKS
KALISPELL      SUNNY     88  52  29 VRB3      30.16F
MISSOULA       SUNNY     91  45  20 VRB3      30.16F
MULLAN PASS    SUNNY     77  39  26 VRB5      30.37F
* ESSEX        N/A       87  41  20 SE3G9      N/A
* LINCOLN      N/A       88  42  20 S5         N/A
* LOOKOUT PASS N/A       83  42  23 SW1G6      N/A
* POLSON       N/A       89  51  27 NW2        N/A
* RONAN APT    SUNNY     84  54  36 N5         N/A
* SEELEY LAKE  N/A       88  42  20 SE3G10     N/A
* THOMP F APT  SUNNY     83  46  27 SW3G12     N/A
* YAAK HILL    N/A       92  52  26 SW2        N/A
$$

MTZ008-052>055-132100-
SOUTHWEST MONTANA
CITY           SKY/WX    TMP DP  RH WIND       PRES   REMARKS
W YELLOWSTONE  PTSUNNY   77  41  28 W3        30.39F
* THREE FORKS  PTCLDY    84  84 100 N/A        N/A   HI 103
* BOULDER HILL N/A       78  45  31 VRB6       N/A
* MONIDA PASS  N/A       80  40  24 N8         N/A
* RAYNOLDS PAS N/A       76  69  79 W6         N/A
* WHITEHALL    N/A       87  54  32 SE7G12     N/A
* WISE RIVER   N/A       86  44  23 W5         N/A
$$

MTZ009>010-012-014-046-048-049-054-132100-
EAST SLOPES AND CENTRAL MONTANA
CITY           SKY/WX    TMP DP  RH WIND       PRES   REMARKS
MALMSTROM AFB  SUNNY     86  43  22 NE13G18   30.23F
* CONRAD       SUNNY     82  55  40 N5         N/A   HI  81
* DEARBORN     N/A       85  42  22 VRB11G16    N/A
* EAST GLACIER N/A       78  51  39 SE6G13     N/A
* MONARCH      N/A       81  37  21 NW8        N/A
* PENDROY      N/A       83  51  33 S5         N/A
* ROGERS PASS  N/A       82  43  25 SE6G12     N/A
* SAINT MARY   N/A       86  47  26 E6G11      N/A
* SWEET GRASS  N/A       82  46  28 E6G11      N/A
$$

MTZ011-013-016-021-035-040-045-047-050-051-132100-
NORTH CENTRAL MONTANA
CITY           SKY/WX    TMP DP  RH WIND       PRES   REMARKS
* CHESTER      N/A       85  41  21 N3G9       N/A
* DENTON       N/A       86  44  23 NW6G18     N/A
* GEYSER       N/A       84  42  23 N5G14      N/A
* JUDITH GAP   N/A       81  47  30 VRB12G24    N/A
* LOMA         N/A       88  46  23 VRB2       N/A
$$

MTZ017>020-022>027-061-062-132100-
NORTHEAST MONTANA
CITY           SKY/WX    TMP DP  RH WIND       PRES   REMARKS
GLENDIVE       SUNNY     77  43  30 N18G24    30.17F
JORDAN         SUNNY     84  46  26 NW8G22    30.17F
SIDNEY         SUNNY     77  39  26 NW16      30.16S
* BEAVER HILL  N/A       75  39  27 NW18G26    N/A
* CIRCLE       N/A       78  52  40 N/A        N/A
* LINDSAY DVD  N/A       73  47  40 NW16       N/A
* NAVAJO       N/A       71  42  35 NW20G26    N/A
* SACO         N/A       79  54  42 W16G21     N/A
$$

MTZ028>042-056>058-132100-
SOUTHCENTRAL AND SOUTHEAST MONTANA
CITY           SKY/WX    TMP DP  RH WIND       PRES   REMARKS
BILLINGS       SUNNY     86  48  27 N/A       30.20F
* LAUREL APT   SUNNY     88  48  25 E5         N/A
* ROUNDUP APT  SUNNY     86  45  24 N13G20     N/A
* ALZADA       N/A       82  46  28 NW8G17     N/A
* HYSHAM       N/A       87  47  25 VRB4G11    N/A
* LAME DEER    N/A       80  48  33 NW8G17     N/A
* REED POINT   N/A       91  45  20 W6G12      N/A
* ROSCOE HILL  N/A       83  38  20 NE5        N/A
$$

REGIONAL REPORTS...DAKOTAS
CITY           SKY/WX    TMP DP  RH WIND       PRES   REMARKS
WILLISTON      SUNNY     77  34  21 NW20G26   30.13F
DICKINSON      SUNNY     73  37  27 NW20G25   30.11F
CROSBY         SUNNY     68  39  35 N24G36    30.11F
WATFORD CITY   SUNNY     72  39  30 NW20      30.10F
BISMARCK       SUNNY     75  39  27 N21G29    30.07F
GRAND FORKS    CLOUDY    70  48  46 NW20G26   29.91S
FARGO          SUNNY     73  43  34 NW20G33   29.92F
BUFFALO SD     SUNNY     79  52  39 NW22      30.09F
RAPID CITY     SUNNY     82  50  33 N7        30.15F
$$

REGIONAL REPORTS...WYOMING/IDAHO/WASHINGTON
CITY           SKY/WX    TMP DP  RH WIND       PRES   REMARKS
GILLETTE       SUNNY     86  39  19 NW21G28   30.22S
CODY           SUNNY     82  48  31 NE9       30.29F
MULLAN PASS    SUNNY     77  39  26 VRB5      30.37S
SAND POINT     SUNNY     86  54  33 E5        30.12F
SPOKANE        SUNNY     93  39  15 CALM      30.12F

$$



USA.gov is the U.S. government's official web portal to all federal, state and local government web resources and services.